Home   Weather   Singen (Hohentwiel)   Past weeks

Flag for Germany Past Weather in Singen (Hohentwiel), Baden-Württemberg, Germany — Yesterday and Last 2 Weeks

Now
46 °F

Clear.


Feels Like: 42 °F
Forecast: 39 / 57 °F
Wind: 9 mph from Northwest

Location: Zurich-Kloten

Current Time: Feb 22, 2017 at 8:56:41 pm

Latest Report: Feb 22, 2017 at 8:20 pm


Visibility: 10 mi

Pressure: 30.04 "Hg

Humidity: 71%

Dew Point: 37 °F

Location of Singen (Hohentwiel)Location

Past Weather in Singen (Hohentwiel) — Graph

°F

Singen (Hohentwiel) Temperature Yesterday

Maximum temperature yesterday: 52 °F (at 4:20 pm)
Minimum temperature yesterday: 43 °F (at 12:20 am)
Average temperature yesterday: 47 °F

High & Low Weather Summary for the Past Weeks

 TemperatureHumidityPressure
High57 °F (Feb 16, 3:50 pm)100% (Feb 7, 7:20 pm)30.60 "Hg (Feb 7, 7:20 pm)
Low23 °F (Feb 15, 2:50 am)48% (Feb 16, 3:50 pm)30.01 "Hg (Feb 7, 7:20 pm)
Average37 °F85%30.24 "Hg
* Reported Feb 7 7:20 pm — Feb 22 7:50 pm, Singen (Hohentwiel), Weather by CustomWeather, © 2017

Note: Actual official high and low records may vary slightly from our data, if they occured in-between our weather recording intervals... More about our weather records

Advertising

Singen (Hohentwiel) Weather History for the Previous 24 Hours

Scroll right to see more
 ConditionsComfort  
Time TempWeatherWind HumidityBarometerVisibility
7:50 pm
Wed, Feb 22
46 °FPassing clouds.5 mph71%30.01 "HgN/A
7:20 pm46 °FPassing clouds.3 mph71%30.01 "HgN/A
6:50 pm46 °FPassing clouds.9 mph71%30.01 "HgN/A
6:20 pm48 °FPassing clouds.8 mph71%30.01 "HgN/A
5:50 pm48 °FSunny.13 mph71%30.01 "Hg10 mi
5:20 pm48 °FSunny.14 mph71%30.01 "Hg10 mi
4:50 pm50 °FSunny.17 mph67%30.01 "Hg10 mi
4:20 pm50 °FSunny.16 mph67%30.01 "Hg10 mi
3:50 pm52 °FPartly sunny.16 mph62%30.01 "HgN/A
3:20 pm50 °FPartly sunny.10 mph67%30.04 "HgN/A
2:50 pm50 °FScattered clouds.14 mph67%30.04 "HgN/A
2:20 pm50 °FScattered clouds.15 mph67%30.04 "HgN/A
1:50 pm52 °FScattered clouds.15 mph62%30.04 "HgN/A
1:20 pm52 °FScattered clouds.15 mph67%30.04 "HgN/A
12:50 pm52 °FScattered clouds.14 mph62%30.04 "HgN/A
12:20 pm52 °FScattered clouds.16 mph67%30.07 "HgN/A
11:50 am52 °FPartly sunny.14 mph62%30.07 "HgN/A
11:20 am50 °FPartly sunny.14 mph67%30.07 "HgN/A
10:50 am50 °FPartly sunny.10 mph71%30.07 "HgN/A
10:20 am50 °FBroken clouds.8 mph71%30.07 "HgN/A
9:50 am50 °FBroken clouds.7 mph76%30.07 "HgN/A
9:20 am48 °FBroken clouds.9 mph82%30.07 "HgN/A
8:50 am48 °FBroken clouds.5 mph82%30.07 "HgN/A
8:20 am48 °FBroken clouds.5 mph82%30.07 "HgN/A
7:50 am48 °FPartly sunny.8 mph82%30.07 "HgN/A
7:20 am48 °FPartly sunny.8 mph82%30.07 "HgN/A
6:50 am48 °FPassing clouds.8 mph82%30.07 "HgN/A
6:20 am48 °FPassing clouds.8 mph82%30.07 "HgN/A
5:50 am48 °FPassing clouds.6 mph82%30.07 "HgN/A
5:20 am48 °FPassing clouds.3 mph82%30.07 "HgN/A
4:50 am48 °FPassing clouds.6 mph87%30.07 "HgN/A
4:20 am48 °FPassing clouds.7 mph87%30.07 "HgN/A
3:50 am48 °FPassing clouds.3 mph87%30.09 "HgN/A
3:20 am48 °FPassing clouds.2 mph87%30.09 "HgN/A
2:50 am48 °FPassing clouds.3 mph87%30.09 "HgN/A
2:20 am48 °FLight rain. Passing clouds.6 mph87%30.09 "HgN/A
1:50 am48 °FPassing clouds.3 mph87%30.12 "HgN/A
12:50 am48 °FPassing clouds.3 mph87%30.12 "HgN/A
12:20 am50 °FPassing clouds.5 mph82%30.12 "HgN/A
11:50 pm
Tue, Feb 21
48 °FPassing clouds.5 mph87%30.12 "HgN/A
11:20 pm50 °FPassing clouds.3 mph82%30.12 "HgN/A
10:50 pm48 °FPartly cloudy.6 mph87%30.12 "HgN/A
10:20 pm48 °FPartly cloudy.2 mph87%30.12 "HgN/A
9:50 pm48 °FPartly cloudy.1 mph87%30.12 "HgN/A
9:20 pm50 °FPartly cloudy.No wind82%30.12 "HgN/A
8:50 pm50 °FPartly cloudy.5 mph88%30.12 "HgN/A
8:20 pm48 °FPartly cloudy.6 mph94%30.12 "HgN/A
Weather by CustomWeather, © 2017

See weather overviewHow to use our weather pages